Temp
-13 -13 -14 -15 -15 -15 -18 -17 -16 -17 -17 -18 -16 -16 -15 -14 -13 -12 -11 -12 -11 -9 -10 -10 -10 -9 -10 -10 -10 -10 -10 -10 -10 -10 -9 -9 -8 -8 -9 -8 -8 -8 -8 -8
-13 -13 -15 -15 -15 -15 -16 -17 -16 -17 -18 -18 -17 -16 -16 -15 -14 -14 -13 -13 -11 -9 -11 -10 -9 -9 -10 -10 -10 -10 -10 -10 -10 -10 -10 -9 -9 -9 -8 -8 -8 -8 -8 -8
-14 -15 -15 -15 -15 -15 -16 -16 -18 -17 -17 -17 -18 -17 -16 -15 -14 -14 -14 -13 -11 -11 -12 -11 -10 -11 -11 -9 -10 -11 -11 -11 -11 -12 -11 -10 -9 -9 -9 -9 -9 -9 -9 -9
-15 -15 -15 -15 -15 -15 -15 -16 -17 -18 -18 -17 -17 -16 -15 -15 -14 -14 -13 -13 -12 -11 -10 -10 -11 -11 -11 -11 -12 -13 -14 -13 -13 -11 -10 -10 -10 -10 -9 -9 -9 -9 -9 -9
-15 -15 -15 -15 -15 -15 -15 -17 -17 -18 -18 -17 -16 -16 -15 -15 -15 -14 -13 -12 -11 -10 -10 -11 -11 -11 -12 -13 -14 -13 -13 -12 -12 -11 -11 -11 -10 -10 -9 -10 -10 -10 -10 -10
-16 -16 -16 -16 -16 -16 -16 -17 -17 -18 -18 -17 -16 -16 -15 -15 -15 -16 -14 -13 -13 -13 -14 -14 -14 -15 -14 -13 -14 -14 -13 -13 -13 -12 -12 -12 -11 -11 -11 -11 -11 -11 -12 -12
-16 -16 -16 -16 -16 -16 -16 -17 -17 -18 -17 -16 -16 -16 -16 -15 -16 -15 -15 -14 -14 -13 -14 -14 -14 -13 -14 -13 -14 -14 -13 -13 -13 -13 -12 -12 -12 -12 -12 -12 -12 -13 -13 -13
-16 -16 -16 -15 -16 -16 -16 -18 -17 -16 -16 -16 -16 -16 -16 -16 -16 -16 -15 -15 -15 -15 -14 -14 -14 -14 -14 -13 -14 -14 -13 -13 -13 -13 -12 -12 -12 -12 -12 -12 -12 -12 -12 -12
-17 -17 -17 -16 -16 -17 -17 -17 -17 -16 -16 -16 -16 -17 -16 -16 -16 -15 -15 -15 -15 -15 -15 -14 -14 -13 -13 -14 -13 -13 -14 -13 -13 -13 -12 -12 -12 -12 -12 -12 -11 -11 -11 -11
-17 -19 -18 -17 -17 -17 -17 -17 -18 -17 -16 -16 -16 -16 -16 -16 -16 -16 -15 -15 -15 -15 -15 -14 -14 -14 -14 -14 -13 -13 -13 -12 -12 -12 -13 -12 -12 -12 -12 -11 -12 -13 -12 -12
-17 -18 -17 -17 -17 -17 -17 -17 -18 -16 -16 -16 -16 -15 -16 -16 -16 -16 -16 -15 -15 -15 -14 -14 -14 -14 -14 -13 -13 -13 -13 -13 -13 -14 -13 -13 -13 -13 -13 -13 -13 -13 -12 -13
-16 -17 -17 -17 -17 -17 -18 -18 -17 -18 -17 -17 -17 -16 -16 -16 -16 -16 -15 -15 -15 -14 -15 -14 -14 -13 -13 -13 -14 -14 -14 -13 -13 -13 -13 -13 -13 -13 -13 -13 -13 -13 -13 -13
-16 -16 -16 -17 -17 -17 -17 -17 -18 -17 -17 -15 -17 -17 -17 -16 -16 -16 -15 -15 -15 -15 -14 -14 -14 -13 -13 -13 -13 -13 -12 -12 -12 -13 -13 -13 -13 -13 -13 -12 -13 -13 -12 -12
-17 -16 -16 -17 -17 -17 -16 -17 -17 -18 -17 -17 -16 -16 -15 -16 -17 -17 -16 -16 -15 -15 -14 -14 -14 -14 -13 -13 -13 -14 -14 -13 -13 -13 -13 -13 -13 -13 -12 -12 -12 -11 -12 -11
-16 -16 -16 -16 -16 -17 -17 -17 -17 -17 -17 -17 -17 -17 -17 -16 -16 -16 -16 -16 -15 -15 -14 -14 -14 -14 -13 -13 -13 -13 -13 -13 -13 -13 -13 -12 -12 -12 -12 -12 -12 -11 -11 -11
-17 -17 -17 -17 -17 -17 -17 -17 -16 -16 -16 -16 -16 -17 -16 -16 -16 -15 -15 -15 -15 -14 -14 -14 -14 -13 -13 -13 -13 -13 -13 -13 -13 -13 -12 -12 -12 -12 -12 -11 -11 -11 -11 -11
-17 -17 -17 -17 -17 -17 -17 -17 -17 -17 -16 -16 -16 -16 -16 -16 -16 -16 -15 -15 -15 -15 -14 -14 -14 -14 -14 -13 -13 -13 -13 -13 -13 -13 -12 -12 -12 -12 -12 -11 -12 -12 -13 -13
-17 -17 -18 -17 -17 -17 -16 -17 -16 -16 -16 -17 -17 -16 -16 -16 -16 -16 -16 -15 -15 -15 -15 -14 -14 -14 -14 -13 -13 -13 -13 -13 -12 -12 -12 -12 -12 -12 -12 -13 -13 -14 -14 -14
-18 -17 -17 -17 -17 -17 -17 -17 -17 -17 -16 -16 -16 -16 -16 -16 -16 -16 -16 -15 -15 -15 -15 -14 -14 -14 -14 -14 -13 -13 -13 -13 -13 -13 -13 -13 -13 -14 -14 -14 -14 -13 -13 -13
-18 -17 -17 -17 -17 -17 -17 -17 -17 -17 -17 -16 -16 -16 -16 -16 -16 -15 -16 -15 -15 -15 -15 -15 -15 -15 -15 -15 -14 -14 -14 -14 -14 -14 -14 -14 -13 -13 -13 -13 -13 -13 -13 -13
-18 -18 -18 -18 -18 -17 -17 -17 -17 -17 -17 -17 -17 -17 -17 -16 -16 -16 -16 -16 -16 -16 -16 -15 -15 -15 -15 -15 -15 -14 -14 -14 -14 -14 -13 -13 -13 -13 -13 -13 -13 -13 -14 -14
-18 -18 -18 -18 -18 -18 -18 -18 -18 -17 -17 -17 -17 -17 -17 -17 -17 -16 -16 -16 -16 -16 -16 -16 -16 -15 -15 -15 -15 -14 -14 -14 -14 -14 -13 -13 -13 -13 -12 -13 -13 -15 -15 -16
-19 -18 -18 -18 -18 -18 -18 -18 -18 -17 -17 -17 -17 -17 -17 -17 -17 -17 -17 -17 -17 -16 -16 -16 -15 -15 -15 -15 -15 -14 -14 -14 -14 -13 -13 -13 -13 -13 -13 -13 -14 -15 -16 -17
-19 -19 -19 -19 -18 -18 -18 -18 -18 -18 -18 -18 -17 -17 -17 -17 -17 -17 -17 -17 -16 -16 -16 -16 -15 -15 -15 -14 -14 -14 -14 -14 -14 -14 -13 -13 -13 -13 -13 -15 -15 -16 -18 -19
-20 -19 -19 -19 -19 -19 -18 -18 -18 -18 -18 -18 -18 -17 -17 -17 -17 -17 -16 -16 -16 -16 -16 -15 -15 -15 -14 -14 -14 -14 -14 -14 -14 -13 -13 -13 -13 -14 -15 -15 -16 -17 -19 -19
-20 -20 -20 -20 -19 -19 -19 -19 -19 -19 -18 -18 -18 -17 -17 -17 -17 -16 -16 -16 -16 -16 -15 -15 -15 -14 -14 -14 -14 -14 -14 -14 -14 -13 -14 -14 -14 -15 -16 -16 -16 -18 -19 -20
Height
5710 5711 5712 5714 5714 5714 5711 5711 5715 5716 5717 5716 5718 5724 5733 5738 5744 5755 5762 5771 5779 5786 5795 5795 5794 5795 5802 5809 5812 5812 5813 5817 5821 5826 5829 5833 5834 5834 5835 5835 5833 5833 5833 5832
5702 5706 5705 5706 5708 5707 5706 5705 5710 5713 5714 5713 5713 5715 5723 5733 5735 5747 5754 5759 5768 5776 5781 5779 5780 5789 5794 5794 5792 5796 5803 5807 5810 5814 5818 5822 5823 5824 5825 5825 5825 5824 5823 5823
5695 5698 5697 5698 5701 5701 5704 5703 5706 5711 5710 5710 5712 5714 5719 5725 5732 5740 5746 5750 5757 5764 5771 5771 5779 5782 5778 5783 5786 5787 5792 5795 5801 5806 5811 5813 5814 5814 5814 5814 5813 5813 5813 5814
5686 5689 5690 5692 5695 5698 5699 5702 5701 5705 5709 5714 5713 5720 5719 5722 5728 5734 5739 5744 5750 5756 5759 5764 5768 5773 5776 5774 5774 5779 5786 5793 5798 5800 5803 5804 5804 5805 5804 5803 5805 5806 5805 5804
5683 5682 5684 5687 5691 5694 5698 5698 5699 5700 5706 5708 5710 5717 5717 5718 5721 5726 5731 5737 5741 5746 5752 5757 5762 5765 5766 5770 5778 5783 5785 5787 5790 5791 5792 5792 5794 5795 5795 5796 5797 5796 5796 5796
5671 5675 5677 5683 5686 5690 5693 5694 5697 5698 5703 5706 5710 5716 5715 5715 5719 5720 5725 5731 5736 5741 5747 5751 5755 5759 5766 5770 5774 5778 5779 5780 5781 5783 5785 5785 5786 5787 5787 5787 5787 5786 5785 5783
5665 5668 5672 5676 5681 5685 5688 5691 5696 5700 5701 5704 5710 5711 5714 5708 5715 5718 5721 5725 5730 5737 5744 5749 5753 5757 5759 5764 5768 5770 5771 5773 5773 5774 5774 5775 5776 5777 5776 5776 5775 5773 5772 5770
5657 5661 5666 5671 5677 5682 5685 5688 5696 5699 5701 5703 5702 5706 5712 5707 5711 5715 5719 5723 5727 5731 5736 5740 5745 5749 5753 5756 5759 5761 5762 5763 5764 5764 5764 5765 5765 5764 5763 5761 5761 5760 5759 5757
5650 5655 5659 5663 5670 5676 5682 5681 5690 5690 5693 5696 5700 5700 5701 5704 5707 5711 5716 5720 5724 5727 5731 5734 5737 5740 5743 5746 5750 5751 5752 5753 5754 5753 5753 5751 5750 5749 5749 5749 5749 5747 5746 5744
5645 5650 5651 5658 5662 5666 5672 5679 5682 5685 5691 5695 5694 5697 5702 5699 5703 5706 5709 5713 5717 5720 5723 5726 5729 5731 5734 5736 5738 5740 5741 5741 5741 5740 5739 5738 5737 5737 5737 5737 5734 5732 5730 5729
5641 5646 5649 5651 5655 5661 5665 5669 5674 5680 5684 5689 5693 5693 5693 5693 5697 5700 5703 5706 5710 5712 5715 5718 5721 5723 5724 5726 5728 5729 5729 5729 5728 5727 5726 5726 5727 5726 5724 5722 5720 5718 5716 5713
5636 5640 5644 5649 5648 5652 5657 5661 5669 5671 5677 5680 5686 5687 5686 5688 5691 5693 5696 5699 5701 5703 5706 5708 5710 5713 5714 5714 5715 5716 5716 5717 5718 5717 5716 5715 5712 5711 5709 5707 5705 5702 5700 5696
5632 5636 5639 5643 5646 5648 5650 5653 5658 5664 5667 5673 5678 5681 5679 5681 5684 5686 5687 5689 5691 5693 5695 5697 5699 5701 5703 5704 5706 5706 5706 5706 5705 5704 5702 5700 5699 5697 5694 5692 5688 5686 5682 5678
5626 5630 5634 5639 5642 5646 5648 5650 5652 5656 5659 5663 5669 5667 5671 5671 5674 5675 5677 5679 5681 5683 5683 5684 5686 5688 5690 5691 5692 5693 5693 5693 5692 5691 5689 5688 5685 5683 5680 5677 5672 5669 5664 5660
5620 5625 5629 5633 5637 5641 5644 5647 5650 5652 5655 5659 5660 5663 5663 5664 5665 5667 5670 5672 5673 5674 5675 5675 5677 5678 5680 5681 5681 5681 5681 5681 5681 5680 5677 5674 5671 5668 5666 5661 5654 5650 5646 5642
5614 5620 5625 5628 5632 5636 5639 5642 5645 5648 5651 5654 5655 5658 5657 5659 5660 5661 5662 5664 5666 5669 5670 5670 5671 5671 5671 5670 5670 5670 5671 5670 5669 5667 5664 5661 5657 5652 5647 5643 5639 5634 5629 5625
5610 5615 5620 5624 5628 5632 5635 5638 5641 5643 5646 5648 5651 5650 5653 5654 5655 5656 5657 5657 5657 5658 5658 5658 5658 5657 5658 5659 5659 5659 5658 5657 5654 5650 5647 5644 5641 5638 5633 5629 5623 5618 5612 5606
5605 5611 5615 5621 5624 5627 5631 5632 5635 5638 5640 5642 5644 5645 5646 5647 5648 5649 5650 5651 5651 5651 5651 5650 5650 5650 5650 5650 5649 5649 5648 5646 5643 5640 5637 5634 5630 5625 5619 5613 5607 5600 5594 5589
5601 5608 5612 5616 5619 5624 5626 5628 5631 5632 5634 5635 5637 5639 5640 5640 5640 5639 5640 5640 5640 5640 5640 5641 5641 5642 5642 5641 5640 5639 5637 5634 5632 5629 5625 5620 5615 5610 5605 5599 5592 5585 5578 5571
5599 5604 5608 5611 5614 5616 5620 5622 5625 5626 5628 5628 5630 5633 5634 5634 5633 5633 5632 5632 5632 5632 5633 5633 5633 5633 5633 5631 5630 5628 5625 5623 5621 5617 5614 5610 5605 5600 5593 5586 5578 5569 5560 5551
5595 5599 5603 5605 5608 5611 5615 5617 5620 5622 5624 5623 5625 5626 5628 5628 5627 5625 5625 5625 5624 5624 5624 5625 5624 5623 5623 5622 5620 5617 5616 5614 5612 5610 5606 5602 5596 5590 5581 5573 5562 5551 5541 5530
5592 5595 5599 5602 5605 5607 5610 5612 5615 5616 5616 5617 5618 5619 5620 5620 5619 5618 5617 5617 5617 5617 5616 5615 5615 5614 5612 5612 5611 5610 5609 5608 5607 5604 5600 5593 5587 5579 5570 5559 5545 5532 5519 5508
5588 5592 5596 5599 5600 5602 5604 5606 5607 5609 5610 5612 5612 5612 5613 5613 5612 5611 5610 5610 5609 5609 5608 5607 5606 5605 5605 5605 5604 5604 5604 5603 5601 5597 5593 5587 5579 5570 5558 5544 5530 5515 5502 5489
5583 5587 5590 5593 5595 5597 5599 5600 5601 5603 5605 5606 5606 5607 5607 5606 5605 5603 5603 5603 5602 5601 5600 5598 5597 5597 5597 5597 5598 5599 5598 5597 5594 5591 5586 5580 5571 5560 5547 5532 5517 5503 5492 5483
5579 5582 5585 5588 5590 5592 5593 5595 5596 5598 5599 5600 5600 5600 5600 5599 5597 5596 5595 5595 5594 5593 5591 5590 5590 5590 5591 5593 5594 5594 5593 5592 5589 5585 5581 5572 5564 5552 5537 5524 5513 5500 5491 5483
5575 5578 5581 5584 5585 5587 5589 5590 5591 5593 5594 5594 5594 5594 5593 5592 5590 5589 5588 5587 5586 5584 5584 5583 5583 5585 5588 5589 5590 5590 5589 5587 5584 5580 5574 5567 5557 5545 5533 5522 5511 5501 5494 5489
Wind_Speed
27 26 16 16 19 20 17 17 21 27 27 31 39 48 62 71 72 66 66 61 60 51 65 69 70 79 62 55 57 61 62 62 61 60 58 53 50 49 51 52 51 52 52 52
28 21 19 23 24 20 18 15 15 21 21 28 28 34 41 51 65 58 59 61 66 58 42 75 77 74 65 60 62 64 62 60 61 62 57 48 46 50 50 50 51 52 54 52
27 23 25 26 24 18 18 16 14 14 20 16 19 25 28 38 44 47 40 56 63 70 55 60 72 61 64 67 61 59 54 55 45 39 41 46 48 49 50 51 52 51 51 50
29 26 28 27 23 20 20 18 18 18 14 12 17 15 25 30 29 33 35 36 48 55 51 51 67 53 58 51 37 24 26 32 39 44 46 45 45 48 50 50 51 49 49 50
27 27 26 27 19 21 16 23 23 22 19 19 10 21 17 31 31 29 30 28 36 43 43 51 70 51 33 23 23 28 31 33 35 39 41 42 45 48 49 48 48 50 51 52
34 29 29 26 23 21 19 24 25 23 21 24 20 18 17 22 22 23 31 30 24 21 19 24 24 24 31 29 24 29 33 35 37 41 43 44 46 48 47 46 48 49 50 51
34 34 32 31 25 24 23 24 20 20 23 22 21 19 19 26 23 20 16 16 15 21 26 28 27 29 28 29 30 32 35 38 40 42 45 48 48 46 45 46 48 48 49 52
32 33 35 31 28 24 25 23 17 17 19 20 27 27 24 28 24 24 22 22 21 23 25 28 29 31 33 35 38 39 43 44 45 46 49 50 48 48 48 50 49 50 53 53
29 33 33 32 28 27 20 27 23 22 27 19 21 27 27 30 29 25 27 29 27 28 30 33 35 37 39 41 42 43 45 47 47 46 47 48 47 48 49 51 51 52 53 56
25 25 31 28 28 29 30 19 26 28 21 22 17 17 19 26 27 27 29 31 33 36 38 40 42 44 45 46 45 44 44 46 48 47 47 47 48 49 51 54 56 57 59 61
24 23 20 28 32 25 31 31 26 23 27 23 22 14 27 30 25 28 28 28 29 31 33 36 39 42 44 45 45 45 46 47 48 47 47 49 52 55 58 59 61 62 64 65
19 22 26 18 24 30 35 28 26 27 28 28 25 25 24 29 24 27 28 28 29 30 33 35 39 42 43 42 42 42 43 46 48 50 53 56 57 59 60 62 63 62 64 65
20 22 22 23 19 21 25 32 37 28 28 24 23 29 30 31 31 31 31 30 32 33 35 38 40 42 43 44 45 45 46 48 50 51 54 55 57 57 58 60 61 63 66 67
26 24 27 24 19 14 15 17 24 29 28 27 29 29 29 24 28 27 30 31 32 32 32 34 37 40 43 43 43 42 42 44 45 47 50 52 54 57 59 60 61 62 63 65
27 27 25 29 23 25 19 19 21 22 22 20 21 21 24 23 22 22 21 22 23 25 28 30 32 35 37 39 40 42 44 46 47 49 50 51 53 55 57 59 62 64 67 70
29 22 18 18 17 16 17 18 19 19 18 19 20 19 24 20 22 21 23 24 26 26 28 30 31 33 35 36 38 40 42 43 45 47 48 51 53 56 59 62 65 67 69 69
26 21 18 19 20 21 20 19 20 20 20 21 20 24 20 23 24 25 26 28 30 31 31 33 34 35 36 37 38 39 40 43 45 48 51 55 57 60 63 65 66 65 62 61
24 23 23 20 21 22 20 20 20 20 19 20 21 23 24 25 27 28 29 30 31 32 34 35 36 37 37 38 39 40 43 45 48 51 54 58 59 59 57 54 54 56 58 60
27 26 22 21 22 21 21 20 20 19 18 20 23 23 24 25 27 29 29 31 32 33 34 35 36 36 37 38 39 41 44 47 50 51 49 45 44 46 49 51 54 58 60 64
24 23 20 19 19 19 16 17 17 18 20 22 23 22 22 25 28 29 29 30 32 33 33 34 35 34 34 36 38 38 40 40 36 34 35 37 40 43 47 52 56 59 62 66
23 21 19 20 20 20 18 19 20 20 24 21 21 21 22 24 26 28 28 30 31 32 32 31 30 29 30 30 30 31 29 27 27 28 31 35 41 43 46 50 55 59 62 63
24 23 21 19 19 20 19 19 21 20 21 21 20 21 21 22 24 26 29 29 29 28 28 27 26 28 29 28 26 24 22 20 22 26 30 32 36 41 49 56 59 60 60 59
25 22 19 21 21 19 19 20 20 21 21 21 21 21 23 24 25 26 27 26 25 25 26 26 27 26 24 22 19 15 13 16 20 23 27 31 40 44 51 58 57 59 61 55
23 21 21 21 21 19 21 22 21 20 21 21 21 22 24 25 26 28 28 26 26 27 29 25 22 19 18 13 9 9 12 15 19 21 26 35 38 45 53 51 53 40 32 29
21 21 21 20 19 20 22 21 20 20 21 21 21 23 24 24 27 28 27 26 26 27 23 19 18 13 5 6 8 9 11 16 17 21 28 34 37 44 45 46 40 33 25 19
21 19 19 19 19 22 21 20 20 20 20 20 21 22 22 26 26 28 28 25 23 19 17 12 8 8 7 6 5 9 10 14 18 21 27 31 36 42 41 35 34 26 22 15
Wind_Direction
237 236 236 234 239 244 219 245 278 264 254 241 249 242 237 235 235 234 225 227 226 231 231 235 243 241 224 221 225 226 226 230 233 238 242 248 254 256 261 262 263 266 268 268
233 232 231 229 237 236 239 219 250 266 241 242 230 226 230 235 242 240 237 231 223 226 244 230 234 236 229 219 220 225 230 231 233 237 239 251 256 257 259 260 262 264 264 267
230 227 232 231 237 237 251 226 223 229 250 245 231 234 214 225 237 241 243 241 228 230 241 242 237 223 221 227 224 227 232 236 244 258 260 257 258 260 261 261 261 263 267 271
225 224 230 234 238 237 238 236 208 210 218 232 241 223 224 219 218 227 239 241 240 234 246 247 225 220 225 231 230 249 263 256 253 252 255 259 261 261 261 262 264 268 272 273
226 224 226 234 233 239 230 229 213 206 217 220 236 203 232 225 208 210 221 227 236 227 234 240 224 226 225 249 245 247 249 252 256 256 257 259 260 261 262 265 269 270 269 270
220 215 219 222 221 226 216 221 223 217 217 227 213 208 228 232 213 219 216 207 211 209 223 230 232 233 241 239 245 248 246 247 252 258 261 260 261 263 265 267 266 267 268 268
222 219 217 218 218 217 214 217 220 224 218 219 224 224 213 209 228 225 222 217 209 223 224 222 223 230 237 243 242 243 244 249 252 255 258 260 261 262 261 260 260 262 265 267
227 223 222 225 218 220 216 213 203 228 225 228 229 217 229 240 231 224 223 222 221 225 230 232 233 236 240 245 249 249 247 249 254 259 260 261 263 262 262 263 267 269 270 273
228 219 221 222 221 214 221 214 207 226 213 202 233 222 218 234 232 232 224 227 230 232 233 236 239 242 245 246 248 249 250 252 255 261 263 262 261 264 267 270 272 274 275 274
224 214 225 220 221 221 202 230 220 215 217 216 220 232 229 243 237 240 241 238 237 237 238 240 242 243 247 250 252 252 253 255 260 261 258 262 267 270 272 273 272 274 276 276
211 209 235 229 225 222 219 217 215 216 216 223 228 220 237 239 240 242 242 239 236 234 235 238 241 246 249 251 252 254 255 256 258 262 265 267 268 269 269 271 273 275 277 279
204 204 205 216 234 228 219 211 222 226 222 226 214 239 241 250 243 241 241 241 239 238 238 238 240 243 247 251 253 255 257 259 260 262 263 265 268 271 274 276 277 278 279 279
199 201 202 217 215 225 232 235 218 220 215 228 235 233 245 258 259 250 249 249 248 247 246 246 247 249 252 254 257 260 262 263 265 268 270 272 274 276 279 279 279 279 279 280
211 230 211 210 221 218 224 230 235 235 238 238 226 242 245 241 255 250 248 250 253 256 257 259 259 259 261 262 264 265 266 268 271 274 275 276 278 279 278 279 281 281 282 283
212 220 228 226 231 215 218 219 224 225 227 227 229 218 234 236 240 243 249 252 254 255 259 263 265 264 265 268 269 270 273 274 275 276 278 280 280 281 281 283 284 285 284 284
205 208 217 215 220 217 223 228 231 232 232 231 235 234 242 243 249 254 256 256 257 257 259 262 264 266 267 269 270 271 273 276 278 279 279 280 283 285 285 284 284 284 284 284
210 207 212 216 214 219 226 224 227 232 234 235 235 240 247 253 257 261 263 264 267 267 268 269 270 271 272 273 275 278 281 282 284 286 287 286 286 287 287 286 286 286 287 285
204 213 214 212 216 222 229 228 231 233 234 240 243 245 252 256 262 266 268 268 267 267 266 265 267 269 272 275 278 281 281 282 283 283 284 286 286 288 289 289 286 284 285 285
205 215 212 212 217 226 225 229 236 244 245 249 251 253 258 265 269 269 272 272 271 271 270 270 271 273 275 277 278 279 280 281 283 285 289 292 291 288 288 289 290 289 288 287
200 208 210 218 225 233 234 240 244 249 250 251 255 257 260 265 270 270 268 269 270 270 271 273 275 277 278 277 279 281 281 284 289 288 286 289 294 296 296 295 295 293 292 291
202 208 214 220 228 235 238 242 241 241 250 250 254 259 263 265 266 273 273 273 273 275 278 280 280 279 280 282 282 280 282 280 279 287 296 299 302 302 302 303 302 299 297 298
206 210 216 223 230 234 237 239 242 243 248 253 258 264 270 275 275 275 276 279 281 284 286 284 281 277 276 276 273 272 267 275 290 300 303 307 307 308 309 309 310 309 306 302
210 214 219 222 229 236 243 246 243 245 249 254 258 265 275 281 286 287 286 285 283 281 282 280 276 270 266 263 256 254 273 290 301 309 311 312 312 314 318 318 318 315 311 308
212 217 218 223 231 237 242 245 246 248 252 256 261 267 276 287 294 294 287 279 277 284 287 279 268 259 252 239 239 264 281 299 308 314 318 317 320 322 324 327 328 329 332 329
206 212 216 222 230 237 243 245 250 254 258 262 266 271 282 290 294 289 281 278 282 281 275 260 254 228 213 222 238 271 293 302 312 314 322 329 330 333 336 337 337 334 337 352
209 214 224 230 234 239 244 248 253 257 259 265 270 280 292 295 291 281 278 279 280 269 260 244 208 214 204 215 266 286 300 313 314 318 328 336 341 346 344 347 355 3 5 26